Manchester, NH

12:33 PM EST on February 23, 2018 (GMT -0500)
Manchester

Weather History for KMHT - November, 2011

Change the Weather History Date:

Thursday, November 3, 2011

  Actual Average Record
Temperature  
Mean Temperature 44 °F 46 °F  
Max Temperature 57 °F 55 °F 81 °F (1950)
Min Temperature 30 °F 36 °F 23 °F (1934)
Degree Days  
Heating Degree Days 22 20  
Month to date heating degree days 58  
Since 1 July heating degree days 645  
Cooling Degree Days 0 0  
Month to date cooling degree days 0  
Year to date cooling degree days 642  
Moisture  
Dew Point 35 °F    
Average Humidity 75    
Maximum Humidity 92    
Minimum Humidity 44    
Precipitation  
Precipitation 0.00 in 0.16 in 3.43 in (1951)
Month to date precipitation 0.45  
Year to date precipitation 37.68  
Snow  
Snow 0.00 in - - ()
Month to date snowfall  
Since 1 July snowfall  
Snow Depth -    
Sea Level Pressure  
Sea Level Pressure 30.05 in    
Wind  
Wind Speed 1 mph (SSW)    
Max Wind Speed 7 mph    
Max Gust Speed -    
Visibility 7 miles    
Events      
T = Trace of Precipitation, MM = Missing Value Source: NWS Daily Summary

Daily Weather History Graph

Daily Weather History Graph

Search for Another Location

Airport or City:

Trip Planner

Search our weather history database for the weather conditions in past years. The results will help you decide how hot, cold, wet, or windy it might be!

Date:

Astronomy

Nov. 03, 2011 Rise Set
Actual Time 7:22 AM EDT 5:35 PM EDT
Civil Twilight 6:52 AM EDT 6:05 PM EDT
Nautical Twilight 6:19 AM EDT 6:38 PM EDT
Astronomical Twilight 5:46 AM EDT 7:11 PM EDT
Moon 2:07 PM EDT (11/3) 12:21 AM EDT (11/3)
Length of Visible Light 11h 12m
Length of Day
10h 13m
First Quarter, 60% of the Moon is Illuminated
Nov 3
First Quarter
Nov 10
Full
Nov 18
Last Quarter
Nov 25
New
Dec 2
First Quarter

Hourly Weather History & Observations

Time (EDT) Temp. Windchill Dew Point Humidity Pressure Visibility Wind Dir Wind Speed Gust Speed Precip Events Conditions
12:53 AM 35.1 °F - 32.0 °F 89% 30.25 in 6.0 mi Calm Calm - N/A   Clear
1:53 AM 33.1 °F - 30.9 °F 92% 30.22 in 2.0 mi Calm Calm - N/A   Clear
2:53 AM 33.1 °F - 30.9 °F 92% 30.20 in 2.0 mi Calm Calm - N/A   Clear
3:53 AM 32.0 °F - 30.0 °F 92% 30.18 in 2.0 mi Calm Calm - N/A   Clear
4:53 AM 30.9 °F - 28.9 °F 92% 30.18 in 2.0 mi Calm Calm - N/A   Clear
5:53 AM 30.9 °F - 28.9 °F 92% 30.17 in 2.0 mi Calm Calm - N/A   Clear
6:53 AM 30.0 °F - 28.0 °F 92% 30.15 in 6.0 mi Calm Calm - N/A   Clear
7:53 AM 30.0 °F - 28.0 °F 92% 30.14 in 5.0 mi Calm Calm - N/A   Clear
8:53 AM 33.1 °F 30.0 °F 30.0 °F 89% 30.12 in 6.0 mi SSW 3.5 mph - N/A   Clear
9:53 AM 37.9 °F - 33.1 °F 83% 30.10 in 6.0 mi Calm Calm - N/A   Haze
10:53 AM 45.0 °F - 37.0 °F 74% 30.08 in 6.0 mi Calm Calm - N/A   Haze
11:53 AM 52.0 °F - 37.9 °F 59% 30.06 in 7.0 mi Calm Calm - N/A   Clear
12:53 PM 55.9 °F - 37.0 °F 49% 30.01 in 10.0 mi SSW 6.9 mph - N/A   Clear
1:53 PM 57.0 °F - 35.1 °F 44% 29.98 in 10.0 mi SSW 6.9 mph - N/A   Clear
2:53 PM 57.0 °F - 37.9 °F 49% 29.97 in 10.0 mi SSW 4.6 mph - N/A   Clear
3:53 PM 55.9 °F - 37.9 °F 51% 29.94 in 10.0 mi South 6.9 mph - N/A   Clear
4:53 PM 54.0 °F - 39.0 °F 57% 29.94 in 10.0 mi South 3.5 mph - N/A   Clear
5:53 PM 53.1 °F - 39.0 °F 59% 29.94 in 10.0 mi SSW 3.5 mph - N/A   Clear
6:53 PM 48.0 °F - 39.0 °F 71% 29.94 in 10.0 mi Calm Calm - N/A   Clear
7:53 PM 50.0 °F - 39.0 °F 66% 29.93 in 10.0 mi South 3.5 mph - N/A   Clear
8:53 PM 46.0 °F 44.8 °F 39.0 °F 76% 29.93 in 10.0 mi South 3.5 mph - N/A   Clear
9:53 PM 46.4 °F - 39.2 °F 76% 29.88 in 10.0 mi Calm Calm - N/A   Clear
10:53 PM 43.0 °F - 37.9 °F 82% 29.92 in 10.0 mi Calm Calm - N/A   Clear
11:53 PM 43.0 °F - 37.9 °F 82% 29.92 in 10.0 mi Calm Calm - N/A   Clear